Weather Roundup
Issued by NWS Chicago, IL

Home | Current Version | Previous Version | Text Only | Print | Product List | Glossary Off
Versions: 1 2 3 4 5 6 7 8 9 10 11 12 13 14 15 16 17 18 19 20 21 22 23 24 25 26 27 28 29 30 31 32 33 34 35 36 37 38 39 40 41 42 43 44 45 46 47 48 49 50

000
NZUS59 KLOT 202104
HRRLOT

CHICAGO AREA WEATHER ROUNDUP
NATIONAL WEATHER SERVICE CHICAGO/ROMEOVILLE IL
400 PM CDT FRI OCT 20 2017

NOTE: "FAIR" INDICATES FEW OR NO CLOUDS BELOW 12,000 FEET WITH NO
SIGNIFICANT WEATHER AND/OR OBSTRUCTIONS TO VISIBILITY.

* THESE STATIONS ARE NOT UNDER NWS QUALITY CONTROL. THEY ALSO MAY NOT
  REPORT WEATHER SUCH AS PRECIPITATION OR FOG.

ILZ005-006-012>014-019>023-202200-
NORTHEAST ILLINOIS

CITY           SKY/WX    TMP DP  RH WIND       PRES   REMARKS
OHARE          PTSUNNY   78  50  37 S12       30.06F
MIDWAY         PTSUNNY   80  50  34 S14       30.06F HX  80
AURORA         SUNNY     77  48  35 S13       30.06F
LANSING*       SUNNY     77  54  44 S12G20    30.09S
JOLIET*        SUNNY     80  52  38 S10       30.07F
WAUKEGAN       SUNNY     76  52  43 S16       30.05F
DUPAGE AIRPORT CLOUDY    76  51  41 S10       30.05F
WHEELING       SUNNY     78  52  40 S12       30.07F
KANKAKEE*      SUNNY     78  49  36 S8        30.09F
MORRIS*        SUNNY     79  48  34 S10       30.05F
LEWIS AIRPORT* SUNNY     78  50  37 S10G17    30.06F
NORTHERLY ISL    N/A     78  47  33 S8          N/A
$$

WIZ051-052-058>065-066-070>072-202200-
SOUTHEAST WISCONSIN

CITY           SKY/WX    TMP DP  RH WIND       PRES   REMARKS
MILWAUKEE      PTSUNNY   78  51  38 S10       30.03F
KENOSHA*       SUNNY     77  49  37 S10       30.05F
RACINE*        SUNNY     73  54  51 SE8       30.05F
WAUKESHA       SUNNY     73  46  38 S14       30.03F
WEST BEND      CLOUDY    77  43  29 SW13      30.01F
$$

INZ001>003-010>013-019-020-202200-
NORTHWEST INDIANA

CITY           SKY/WX    TMP DP  RH WIND       PRES   REMARKS
GARY*          MOSUNNY   81  43  26 S12       30.09F
MICHIGAN CITY* NOT AVBL
RENSSELAER*    NOT AVBL
VALPARAISO     SUNNY     78  51  38 S9        30.11F
$$

LMZ740>746-202200-
SOUTHERN LAKE MICHIGAN

STATION/POSITION TIME  SKY/WX   TEMP WIND        PRES    VSBY
                                AIR  DIR/SP/G
                 (UTC)          (F)  (DEG/KT/KT) (MB)    (MI)
HARRISON CRIB    2040            74  190/ 18/ 19   N/A
BURNHAM HARBOR   2100            77  180/  9/ 15   N/A
CALUMET HARBOR   2030            78  180/ 11/ 16 1017.8F
BURNS HARBOR     2040            77  180/ 12/ 16 1019.3F
MICHIGAN CITY    2040            76  170/ 12/ 15   N/A
$$

ABBREVIATIONS USED IN REMARKS
   TC - TEMPERATURE IN CELSIUS
  WCI - WIND CHILL INDEX
   HX - HEAT INDEX
  VSB - VISIBILITY
$$




USA.gov is the U.S. government's official web portal to all federal, state and local government web resources and services.